Weather History for KPHX - May, 2013

Change the Weather History Date:

Sunday, May 5, 2013

  Actual Average Record
Temperature  
Mean Temperature 82 °F 79 °F  
Max Temperature 93 °F 91 °F 105 °F (1989)
Min Temperature 71 °F 66 °F 45 °F (1964)
Degree Days  
Heating Degree Days 0 0  
Month to date heating degree days 0 0  
Since 1 July heating degree days 881 934  
Cooling Degree Days 17 14  
Month to date cooling degree days 87 67  
Year to date cooling degree days 591 422  
Growing Degree Days 32 (Base 50)    
Moisture  
Dew Point 23 °F    
Average Humidity 13    
Maximum Humidity 19    
Minimum Humidity 7    
Precipitation  
Precipitation 0.00 in 0.00 in 0.46 in (1930)
Month to date precipitation 0.00 0.02  
Year to date precipitation 2.61 3.12  
Snow  
Snow 0.00 in - - ()
Month to date snowfall 0.0  
Year to date snowfall 0.0  
Since 1 July snowfall 0.0  
Snow Depth 0.00 in    
Sea Level Pressure  
Sea Level Pressure 29.75 in    
Wind  
Wind Speed 10 mph (SSW)    
Max Wind Speed 23 mph    
Max Gust Speed 31 mph    
Visibility 10 miles    
Events      
T = Trace of Precipitation, MM = Missing Value Source: NWS Daily Summary

Daily Weather History Graph

Daily Weather History Graph

Search for Another Location

Airport or City:

Trip Planner

Search our weather history database for the weather conditions in past years. The results will help you decide how hot, cold, wet, or windy it might be!

Date:

Astronomy

May. 05, 2013 Rise Set
Actual Time 5:35 AM MST 7:14 PM MST
Civil Twilight 5:08 AM MST 7:40 PM MST
Nautical Twilight 4:36 AM MST 8:13 PM MST
Astronomical Twilight 4:02 AM MST 8:47 PM MST
Moon 2:55 AM MST (5/5) 3:28 PM MST (5/5)
Length of Visible Light 14h 32m
Length of Day
13h 38m
Waning Crescent, 17% of the Moon is Illuminated
May 5
Waning Crescent
May 9
New
May 17
First Quarter
May 24
Full
May 31
Last Quarter

Hourly Weather History & Observations

Time (MST) Temp. Dew Point Humidity Pressure Visibility Wind Dir Wind Speed Gust Speed Precip Events Conditions
12:51 AM 79.0 °F 19.0 °F 11% 29.71 in 10.0 mi SE 4.6 mph - N/A   Mostly Cloudy
1:51 AM 77.0 °F 21.9 °F 13% 29.72 in 10.0 mi SSE 8.1 mph - N/A   Mostly Cloudy
2:51 AM 75.9 °F 26.1 °F 16% 29.73 in 10.0 mi South 9.2 mph - N/A   Overcast
3:51 AM 75.0 °F 25.0 °F 16% 29.73 in 10.0 mi SE 4.6 mph - N/A   Mostly Cloudy
4:51 AM 73.9 °F 24.1 °F 16% 29.75 in 10.0 mi SSE 3.5 mph - N/A   Mostly Cloudy
5:51 AM 72.0 °F 26.1 °F 18% 29.76 in 10.0 mi ESE 5.8 mph - N/A   Mostly Cloudy
6:51 AM 73.9 °F 27.0 °F 18% 29.79 in 10.0 mi SSE 5.8 mph - N/A   Mostly Cloudy
7:51 AM 79.0 °F 28.0 °F 15% 29.80 in 10.0 mi South 8.1 mph - N/A   Scattered Clouds
8:51 AM 79.0 °F 28.9 °F 16% 29.81 in 10.0 mi SSE 13.8 mph 19.6 mph N/A   Scattered Clouds
9:51 AM 82.9 °F 25.0 °F 12% 29.82 in 10.0 mi South 18.4 mph 26.5 mph N/A   Scattered Clouds
10:51 AM 82.9 °F 26.1 °F 13% 29.82 in 10.0 mi SSW 12.7 mph - N/A   Scattered Clouds
11:51 AM 86.0 °F 21.0 °F 9% 29.80 in 10.0 mi South 6.9 mph 18.4 mph N/A   Mostly Cloudy
12:51 PM 90.0 °F 19.9 °F 8% 29.77 in 10.0 mi South 9.2 mph 16.1 mph N/A   Mostly Cloudy
1:51 PM 89.1 °F 19.0 °F 8% 29.75 in 10.0 mi SSW 10.4 mph - N/A   Mostly Cloudy
2:51 PM 91.4 °F 17.6 °F 7% 29.77 in 10.0 mi Calm Calm - N/A   Scattered Clouds
3:51 PM 89.1 °F 17.1 °F 7% 29.69 in 10.0 mi WNW 11.5 mph 23.0 mph N/A   Mostly Cloudy
4:51 PM 89.1 °F 21.0 °F 8% 29.69 in 10.0 mi WNW 17.3 mph - N/A   Scattered Clouds
5:51 PM 87.1 °F 27.0 °F 11% 29.69 in 10.0 mi West 16.1 mph 23.0 mph N/A   Scattered Clouds
6:51 PM 84.9 °F 30.0 °F 14% 29.70 in 10.0 mi West 19.6 mph - N/A   Scattered Clouds
7:51 PM 82.9 °F 19.9 °F 10% 29.72 in 10.0 mi West 16.1 mph - N/A   Mostly Cloudy
8:51 PM 82.0 °F 21.0 °F 10% 29.73 in 10.0 mi West 11.5 mph - N/A   Mostly Cloudy
9:51 PM 80.1 °F 21.0 °F 11% 29.75 in 10.0 mi West 10.4 mph - N/A   Mostly Cloudy
10:51 PM 78.1 °F 19.9 °F 11% 29.78 in 10.0 mi SSW 4.6 mph - N/A   Mostly Cloudy
11:51 PM 77.0 °F 21.0 °F 12% 29.81 in 10.0 mi SW 6.9 mph - N/A   Mostly Cloudy